Terug naar catalogus

COSMOS 588

ActiefMilitairLEO
NORAD 6845·PAYLOAD·🇷🇺 Russia

Gelanceerd Oct 2, 1973 vanaf Plesetsk Cosmodrome

Loading…

Volgende Passages (komende 24 uur)

TLE

VersSource: Space-Track

Epoch: Sep 14, 2026, 09:17 UTC

1 06845U 73069A   26257.38713969 -.00000026  00000-0 -68490-4 0  9997
2 06845  73.9982 233.0236 0028500  18.9682 148.8351 12.48637768413539

Volg COSMOS 588 in realtime met AllMySat

Download on the App Store